Lawton, OK

12:02 AM CDT on July 26, 2017 (GMT -0500)
Lawton-Fort Sill Regional

Weather History for KLAW - November, 2012

Change the Weather History Date:

Tuesday, November 27, 2012

  Actual Average Record
Temperature  
Mean Temperature 41 °F -  
Max Temperature 52 °F 57 °F 79 °F (1960)
Min Temperature 28 °F 32 °F 18 °F (2002)
Degree Days  
Heating Degree Days 24    
Moisture  
Dew Point 26 °F    
Average Humidity 61    
Maximum Humidity 79    
Minimum Humidity 38    
Precipitation  
Precipitation 0.00 in - - ()
Sea Level Pressure  
Sea Level Pressure 30.39 in    
Wind  
Wind Speed 9 mph (NNE)    
Max Wind Speed 14 mph    
Max Gust Speed 22 mph    
Visibility 10 miles    
Events      
Averages and records for this station are not official NWS values.
T = Trace of Precipitation, MM = Missing Value Source: NWS Daily Summary

Daily Weather History Graph

Daily Weather History Graph

Search for Another Location

Airport or City:

Trip Planner

Search our weather history database for the weather conditions in past years. The results will help you decide how hot, cold, wet, or windy it might be!

Date:

Astronomy

Nov. 27, 2012 Rise Set
Actual Time 7:19 AM CST 5:23 PM CST
Civil Twilight 6:51 AM CST 5:51 PM CST
Nautical Twilight 6:20 AM CST 6:22 PM CST
Astronomical Twilight 5:50 AM CST 6:52 PM CST
Moon 4:55 PM CST (11/27) 6:26 AM CST (11/27)
Length of Visible Light 10h 59m
Length of Day
10h 04m
Waxing Gibbous, 99% of the Moon is Illuminated
Nov 27
Waxing Gibbous
Nov 28
Full
Dec 6
Last Quarter
Dec 13
New
Dec 19
First Quarter

Hourly Weather History & Observations

Time (CST) Temp. Windchill Dew Point Humidity Pressure Visibility Wind Dir Wind Speed Gust Speed Precip Events Conditions
12:53 AM 37.9 °F 29.6 °F 24.1 °F 57% 30.40 in 10.0 mi NNE 13.8 mph 21.9 mph N/A   Clear
1:53 AM 36.0 °F 27.1 °F 26.1 °F 67% 30.40 in 10.0 mi North 13.8 mph - N/A   Clear
2:53 AM 36.0 °F 28.0 °F 26.1 °F 67% 30.40 in 10.0 mi North 11.5 mph 20.7 mph N/A   Clear
3:53 AM 34.0 °F 25.0 °F 25.0 °F 70% 30.41 in 10.0 mi North 12.7 mph - N/A   Clear
4:53 AM 32.0 °F 24.8 °F 25.0 °F 75% 30.42 in 10.0 mi North 8.1 mph - N/A   Clear
5:53 AM 32.0 °F 24.2 °F 25.0 °F 75% 30.43 in 10.0 mi NNW 9.2 mph - N/A   Clear
6:53 AM 30.9 °F 22.2 °F 25.0 °F 79% 30.45 in 10.0 mi North 10.4 mph - N/A   Clear
7:53 AM 32.0 °F 22.5 °F 25.0 °F 75% 30.47 in 9.0 mi North 12.7 mph - N/A   Clear
8:53 AM 34.0 °F 25.5 °F 25.0 °F 70% 30.49 in 7.0 mi North 11.5 mph - N/A   Clear
9:53 AM 37.0 °F 29.8 °F 26.1 °F 65% 30.50 in 9.0 mi North 10.4 mph - N/A   Clear
10:53 AM 42.1 °F 37.7 °F 28.0 °F 58% 30.49 in 10.0 mi NE 6.9 mph - N/A   Clear
11:53 AM 46.0 °F - 28.0 °F 50% 30.46 in 10.0 mi Calm Calm - N/A   Clear
12:53 PM 48.0 °F - 27.0 °F 44% 30.42 in 10.0 mi Calm Calm - N/A   Clear
1:53 PM 50.0 °F - 27.0 °F 41% 30.38 in 10.0 mi South 5.8 mph - N/A   Clear
2:53 PM 52.0 °F - 27.0 °F 38% 30.35 in 10.0 mi Variable 6.9 mph - N/A   Clear
3:53 PM 51.1 °F - 26.1 °F 38% 30.34 in 10.0 mi South 8.1 mph - N/A   Clear
4:53 PM 50.0 °F - 27.0 °F 41% 30.32 in 10.0 mi South 8.1 mph - N/A   Clear
5:53 PM 45.0 °F 42.6 °F 26.1 °F 48% 30.32 in 10.0 mi South 4.6 mph - N/A   Clear
6:53 PM 39.9 °F 35.8 °F 26.1 °F 58% 30.32 in 10.0 mi South 5.8 mph - N/A   Clear
7:53 PM 37.9 °F 35.5 °F 26.1 °F 62% 30.34 in 10.0 mi South 3.5 mph - N/A   Clear
8:53 PM 37.0 °F - 25.0 °F 62% 30.35 in 10.0 mi Calm Calm - N/A   Clear
9:53 PM 33.1 °F 28.7 °F 25.0 °F 72% 30.34 in 10.0 mi SE 4.6 mph - N/A   Clear
10:53 PM 32.0 °F - 24.1 °F 73% 30.34 in 10.0 mi Calm Calm - N/A   Clear
11:53 PM 28.0 °F - 21.9 °F 78% 30.34 in 10.0 mi Calm Calm - N/A   Clear